"2009/01/01",1006.6,1008.1,1004.3
"2009/01/02",1010.0,1014.8,1006.8
"2009/01/03",1017.5,1019.9,1014.4
"2009/01/04",1019.7,1021.7,1018.2
"2009/01/05",1018.5,1020.7,1016.6
"2009/01/06",1020.4,1023.8,1017.7
"2009/01/07",1025.1,1026.9,1023.6
"2009/01/08",1026.9,1029.0,1025.2
"2009/01/09",1015.7,1025.4,1001.7
"2009/01/10",1000.6,1006.5, 997.9
"2009/01/11",1012.3,1016.9,1006.3
"2009/01/12",1012.1,1016.4,1007.7
"2009/01/13",1014.5,1019.0,1011.9
"2009/01/14",1018.1,1021.6,1014.1
"2009/01/15",1018.8,1024.2,1013.7
"2009/01/16",1023.2,1025.6,1020.9
"2009/01/17",1024.3,1028.9,1020.6
"2009/01/18",1025.2,1029.1,1016.5
"2009/01/19",1010.2,1017.6,1005.4
"2009/01/20",1020.6,1024.2,1017.0
"2009/01/21",1022.2,1024.5,1020.7
"2009/01/22",1019.4,1021.4,1015.0
"2009/01/23",1006.2,1015.2,1001.5
"2009/01/24",1009.8,1016.8,1001.9
"2009/01/25",1017.4,1019.1,1016.2
"2009/01/26",1019.4,1021.2,1018.0
"2009/01/27",1024.1,1029.5,1020.2
"2009/01/28",1031.3,1033.0,1029.3
"2009/01/29",1027.8,1030.2,1024.7
"2009/01/30",1020.2,1024.9,1011.0
"2009/01/31",1003.2,1011.1, 996.5
"2009/02/01",1016.3,1023.2,1007.3
"2009/02/02",1023.7,1026.2,1021.3
"2009/02/03",1018.0,1021.4,1015.2
"2009/02/04",1021.5,1023.4,1019.1
"2009/02/05",1016.9,1021.5,1012.2
"2009/02/06",1015.8,1020.6,1011.4
"2009/02/07",1018.1,1022.1,1011.7
"2009/02/08",1014.9,1020.2,1011.0
"2009/02/09",1017.4,1021.1,1010.2
"2009/02/10",1008.5,1011.2,1006.3
"2009/02/11",1009.5,1012.1,1007.3
"2009/02/12",1014.7,1020.3,1007.9
"2009/02/13",1013.2,1020.3,1002.0
"2009/02/14",1000.9,1009.5, 995.4
"2009/02/15",1010.9,1014.3,1007.1
"2009/02/16",1007.4,1013.0,1004.5
"2009/02/17",1018.2,1021.5,1012.8
"2009/02/18",1018.8,1021.1,1016.4
"2009/02/19",1022.9,1025.6,1017.6
"2009/02/20",1002.8,1021.4, 992.3
"2009/02/21",1013.5,1021.9, 999.8
"2009/02/22",1017.9,1021.8,1014.3
"2009/02/23",1014.2,1022.5,1009.7
"2009/02/24",1023.1,1026.6,1018.4
"2009/02/25",1011.3,1018.4,1005.1
"2009/02/26",1020.2,1023.9,1012.9
"2009/02/27",1020.9,1023.5,1018.4
"2009/02/28",1022.8,1025.9,1018.4
"2009/03/01",1021.4,1024.5,1017.8
"2009/03/02",1021.1,1025.9,1017.0
"2009/03/03",1024.6,1027.2,1020.0
"2009/03/04",1016.3,1020.2,1011.7
"2009/03/05",1024.3,1027.0,1019.3
"2009/03/06",1011.4,1025.8, 998.2
"2009/03/07",1013.0,1020.3,1003.6
"2009/03/08",1021.4,1022.8,1020.1
"2009/03/09",1019.7,1022.4,1013.8
"2009/03/10",1009.2,1014.1,1004.9
"2009/03/11",1016.6,1021.4,1012.7
"2009/03/12",1026.6,1030.7,1021.3
"2009/03/13",1023.1,1029.7,1011.1
"2009/03/14",1002.3,1011.2, 995.1
"2009/03/15",1013.4,1015.0,1009.8
"2009/03/16",1013.6,1015.8,1011.2
"2009/03/17",1013.9,1019.5,1010.9
"2009/03/18",1019.4,1022.3,1016.9
"2009/03/19",1014.9,1018.5,1009.7
"2009/03/20",1009.3,1016.3,1005.5
"2009/03/21",1018.9,1021.4,1015.8
"2009/03/22",1006.0,1015.9, 992.0
"2009/03/23",1004.7,1013.4, 992.4
"2009/03/24",1015.3,1017.8,1012.9
"2009/03/25",1010.4,1014.4,1007.0
"2009/03/26",1012.3,1015.6,1008.8
"2009/03/27",1014.6,1017.3,1012.2
"2009/03/28",1017.0,1018.3,1015.6
"2009/03/29",1020.7,1024.7,1017.6
"2009/03/30",1025.2,1026.9,1023.4
"2009/03/31",1022.3,1025.4,1017.7
"2009/04/01",1011.7,1018.0,1005.8
"2009/04/02",1012.3,1021.0,1004.8
"2009/04/03",1021.8,1023.4,1020.2
"2009/04/04",1017.8,1022.9,1010.8
"2009/04/05",1011.1,1013.7,1009.5
"2009/04/06",1011.8,1013.4,1009.3
"2009/04/07",1015.9,1019.7,1012.6
"2009/04/08",1019.8,1021.9,1017.4
"2009/04/09",1022.6,1024.8,1020.1
"2009/04/10",1021.8,1024.6,1018.6
"2009/04/11",1021.6,1024.4,1019.3
"2009/04/12",1017.7,1022.9,1012.5
"2009/04/13",1009.0,1012.6,1006.3
"2009/04/14",1005.7,1008.0, 997.1
"2009/04/15", 998.7,1005.8, 992.6
"2009/04/16",1008.6,1013.4,1004.9
"2009/04/17",1015.1,1017.5,1012.5
"2009/04/18",1016.3,1018.9,1013.4
"2009/04/19",1017.9,1020.6,1014.7
"2009/04/20",1018.8,1020.3,1016.8
"2009/04/21",1010.4,1016.9,1000.7
"2009/04/22",1001.9,1006.6, 998.2
"2009/04/23",1011.7,1019.8,1006.3
"2009/04/24",1022.3,1023.6,1019.6
"2009/04/25",1009.9,1022.1, 993.3
"2009/04/26", 990.6, 994.6, 987.2
"2009/04/27",1001.7,1010.3, 994.5
"2009/04/28",1015.2,1020.0,1010.2
"2009/04/29",1021.8,1024.3,1019.8
"2009/04/30",1024.3,1026.2,1022.3
"2009/05/01",1023.7,1025.5,1021.0
"2009/05/02",1021.9,1024.3,1019.1
"2009/05/03",1020.2,1021.8,1018.5
"2009/05/04",1019.7,1021.2,1018.0
"2009/05/05",1016.8,1019.3,1014.5
"2009/05/06",1013.6,1014.7,1012.4
"2009/05/07",1009.7,1013.4,1004.6
"2009/05/08",1003.7,1006.8, 999.5
"2009/05/09",1011.3,1013.6,1006.4
"2009/05/10",1011.4,1013.5,1009.2
"2009/05/11",1014.3,1015.6,1012.9
"2009/05/12",1007.7,1014.3,1001.9
"2009/05/13",1003.1,1008.9,1000.2
"2009/05/14",1007.4,1009.1,1003.6
"2009/05/15",1021.3,1023.2,1019.8
"2009/05/16",1021.4,1022.8,1018.7
"2009/05/17",1009.9,1018.7, 999.8
"2009/05/18",1008.2,1010.5,1004.9
"2009/05/19",1009.0,1010.9,1006.9
"2009/05/20",1013.8,1017.9,1010.6
"2009/05/21",1017.2,1019.4,1015.1
"2009/05/22",1012.0,1015.5,1008.0
"2009/05/23",1006.4,1008.1,1005.0
"2009/05/24",1006.6,1008.4,1004.6
"2009/05/25",1010.2,1012.4,1007.4
"2009/05/26",1014.7,1017.6,1012.2
"2009/05/27",1017.2,1018.7,1016.1
"2009/05/28",1015.4,1017.9,1011.2
"2009/05/29",1010.1,1011.3,1009.1
"2009/05/30",1006.7,1009.9,1003.5
"2009/05/31",1001.1,1003.5, 999.2
"2009/06/01",1004.3,1008.9,1000.4
"2009/06/02",1010.1,1011.5,1008.7
"2009/06/03",1008.7,1010.7,1006.3
"2009/06/04",1006.2,1007.5,1004.8
"2009/06/05",1007.0,1007.9,1005.1
"2009/06/06",1001.7,1005.5, 999.4
"2009/06/07",1006.2,1011.6,1002.2
"2009/06/08",1014.3,1016.0,1011.2
"2009/06/09",1014.7,1016.4,1012.7
"2009/06/10",1008.5,1012.8,1003.7
"2009/06/11", 998.3,1004.0, 993.2
"2009/06/12",1002.3,1004.1,1000.1
"2009/06/13",1003.2,1005.8,1001.7
"2009/06/14",1007.4,1009.5,1005.5
"2009/06/15",1012.3,1014.2,1009.1
"2009/06/16",1014.9,1016.1,1013.4
"2009/06/17",1016.0,1018.5,1012.6
"2009/06/18",1016.4,1018.2,1014.7
"2009/06/19",1014.9,1016.4,1013.5
"2009/06/20",1013.5,1016.1,1010.6
"2009/06/21",1006.8,1010.7,1004.8
"2009/06/22",1003.2,1005.3, 996.5
"2009/06/23", 997.9,1001.9, 994.7
"2009/06/24",1002.9,1007.6,1000.9
"2009/06/25",1009.2,1010.6,1007.1
"2009/06/26",1011.2,1012.3,1010.1
"2009/06/27",1010.8,1013.1,1008.8
"2009/06/28",1009.3,1010.8,1007.4
"2009/06/29",1010.0,1011.3,1007.4
"2009/06/30",1007.1,1010.6,1004.9
"2009/07/01",1003.8,1006.7,1000.7
"2009/07/02",1002.2,1005.5, 999.7
"2009/07/03",1007.0,1009.2,1005.0
"2009/07/04",1009.3,1014.3,1006.8
"2009/07/05",1016.1,1018.2,1013.6
"2009/07/06",1017.4,1018.7,1016.1
"2009/07/07",1014.1,1016.3,1011.4
"2009/07/08",1009.0,1011.5,1006.8
"2009/07/09",1005.6,1008.5,1002.2
"2009/07/10",1001.0,1007.3, 998.0
"2009/07/11",1010.8,1013.4,1007.1
"2009/07/12",1014.2,1015.2,1013.2
"2009/07/13",1009.3,1013.4,1005.4
"2009/07/14",1013.3,1014.3,1010.7
"2009/07/15",1006.9,1012.4,1003.3
"2009/07/16",1007.9,1010.5,1004.6
"2009/07/17",1010.1,1011.8,1008.6
"2009/07/18",1008.2,1009.8,1006.4
"2009/07/19",1003.1,1006.5,1000.2
"2009/07/20",1007.7,1009.9,1002.9
"2009/07/21",1003.8,1009.1, 998.7
"2009/07/22",1000.4,1004.6, 998.1
"2009/07/23",1007.4,1009.9,1004.4
"2009/07/24",1009.2,1010.1,1008.2
"2009/07/25",1007.6,1009.0,1005.9
"2009/07/26",1007.6,1008.8,1005.6
"2009/07/27",1007.8,1008.9,1006.5
"2009/07/28",1008.9,1010.3,1007.7
"2009/07/29",1007.5,1009.5,1005.5
"2009/07/30",1006.8,1010.7,1004.7
"2009/07/31",1010.9,1012.1,1009.8
"2009/08/01",1009.5,1010.7,1008.3
"2009/08/02",1008.5,1009.8,1007.2
"2009/08/03",1009.7,1011.1,1008.5
"2009/08/04",1008.0,1010.0,1006.1
"2009/08/05",1009.8,1012.0,1007.4
"2009/08/06",1012.7,1013.8,1011.2
"2009/08/07",1011.1,1013.5,1008.5
"2009/08/08",1010.9,1012.0,1010.0
"2009/08/09",1012.0,1013.5,1010.9
"2009/08/10",1009.8,1012.3,1007.0
"2009/08/11",1006.3,1008.0,1004.7
"2009/08/12",1007.3,1008.6,1005.9
"2009/08/13",1002.3,1006.4, 998.8
"2009/08/14",1006.3,1011.7,1001.2
"2009/08/15",1013.8,1016.3,1011.4
"2009/08/16",1016.3,1017.4,1015.2
"2009/08/17",1017.8,1019.1,1016.6
"2009/08/18",1017.9,1018.8,1016.6
"2009/08/19",1016.2,1017.9,1014.1
"2009/08/20",1012.0,1014.7,1009.4
"2009/08/21",1005.9,1009.5,1003.4
"2009/08/22",1003.9,1005.5,1002.5
"2009/08/23",1005.9,1007.1,1003.8
"2009/08/24",1008.2,1011.0,1006.2
"2009/08/25",1012.3,1014.4,1010.4
"2009/08/26",1014.7,1015.7,1013.9
"2009/08/27",1013.1,1014.5,1011.7
"2009/08/28",1009.9,1012.2,1007.9
"2009/08/29",1010.6,1013.9,1008.2
"2009/08/30",1014.5,1016.1,1013.3
"2009/08/31",1009.3,1013.6,1003.3
"2009/09/01",1014.3,1019.0,1010.3
"2009/09/02",1020.5,1022.2,1018.8
"2009/09/03",1019.5,1021.7,1017.3
"2009/09/04",1014.2,1017.3,1011.2
"2009/09/05",1009.6,1011.4,1007.7
"2009/09/06",1008.2,1009.4,1006.7
"2009/09/07",1006.6,1008.6,1004.6
"2009/09/08",1001.1,1004.6, 998.9
"2009/09/09",1004.3,1006.4,1000.9
"2009/09/10",1007.1,1009.9,1005.0
"2009/09/11",1011.1,1013.0,1009.8
"2009/09/12",1007.9,1012.1,1002.5
"2009/09/13",1008.3,1014.4,1002.9
"2009/09/14",1015.9,1017.4,1014.1
"2009/09/15",1011.1,1014.3,1008.6
"2009/09/16",1010.0,1014.0,1007.7
"2009/09/17",1016.2,1018.0,1014.0
"2009/09/18",1014.0,1017.1,1010.1
"2009/09/19",1008.9,1011.0,1005.9
"2009/09/20",1010.9,1017.7,1005.4
"2009/09/21",1019.1,1020.8,1017.6
"2009/09/22",1020.5,1021.6,1019.6
"2009/09/23",1021.2,1022.3,1020.0
"2009/09/24",1019.1,1020.6,1017.4
"2009/09/25",1016.5,1017.8,1015.2
"2009/09/26",1016.2,1019.7,1014.7
"2009/09/27",1022.5,1025.0,1019.5
"2009/09/28",1021.5,1024.3,1018.2
"2009/09/29",1018.0,1021.3,1015.8
"2009/09/30",1022.0,1023.4,1020.4
"2009/10/01",1021.2,1022.9,1019.3
"2009/10/02",1011.5,1019.4,1003.5
"2009/10/03",1007.0,1014.3,1002.7
"2009/10/04",1015.6,1017.0,1014.2
"2009/10/05",1019.1,1021.6,1015.8
"2009/10/06",1018.6,1020.7,1017.1
"2009/10/07",1015.7,1018.6,1007.0
"2009/10/08", 994.4,1007.1, 987.0
"2009/10/09",1006.5,1012.5,1000.8
"2009/10/10",1014.8,1016.6,1012.3
"2009/10/11",1017.7,1019.6,1016.1
"2009/10/12",1018.2,1020.6,1014.9
"2009/10/13",1011.9,1015.4,1008.8
"2009/10/14",1013.5,1015.4,1011.8
"2009/10/15",1017.3,1018.7,1014.6
"2009/10/16",1016.0,1018.2,1014.0
"2009/10/17",1011.5,1015.3,1005.9
"2009/10/18",1004.2,1006.1,1001.6
"2009/10/19",1008.0,1009.6,1005.5
"2009/10/20",1010.1,1015.2,1007.4
"2009/10/21",1017.0,1018.5,1015.1
"2009/10/22",1019.5,1020.7,1018.0
"2009/10/23",1020.1,1021.5,1018.7
"2009/10/24",1021.5,1023.1,1020.3
"2009/10/25",1022.9,1024.4,1020.8
"2009/10/26",1009.8,1021.0, 999.3
"2009/10/27",1006.9,1019.1, 996.7
"2009/10/28",1024.2,1027.0,1019.0
"2009/10/29",1024.8,1027.1,1022.6
"2009/10/30",1023.4,1025.3,1021.6
"2009/10/31",1024.0,1026.5,1018.7
"2009/11/01",1010.9,1018.9,1005.1
"2009/11/02",1011.1,1017.3,1007.6
"2009/11/03",1025.5,1031.8,1017.1
"2009/11/04",1030.2,1032.9,1027.2
"2009/11/05",1024.1,1027.7,1021.2
"2009/11/06",1022.3,1023.4,1021.5
"2009/11/07",1022.6,1023.5,1021.3
"2009/11/08",1021.4,1023.1,1019.9
"2009/11/09",1017.4,1020.1,1015.4
"2009/11/10",1015.8,1017.5,1013.7
"2009/11/11",1010.2,1017.7,1002.8
"2009/11/12",1025.8,1030.9,1017.3
"2009/11/13",1022.9,1030.0,1006.6
"2009/11/14",1002.5,1006.7, 997.6
"2009/11/15",1008.8,1014.4,1005.3
"2009/11/16",1018.5,1020.2,1014.2
"2009/11/17",1016.0,1020.5,1007.0
"2009/11/18",1017.6,1026.5,1006.5
"2009/11/19",1025.2,1028.0,1022.3
"2009/11/20",1023.7,1025.6,1020.3
"2009/11/21",1019.7,1025.2,1016.3
"2009/11/22",1026.5,1029.4,1023.2
"2009/11/23",1023.9,1026.3,1021.8
"2009/11/24",1025.3,1028.2,1020.9
"2009/11/25",1016.2,1021.0,1013.5
"2009/11/26",1022.3,1026.2,1017.0
"2009/11/27",1021.7,1025.9,1017.1
"2009/11/28",1018.7,1023.0,1015.5
"2009/11/29",1023.2,1025.0,1020.9
"2009/11/30",1019.9,1021.3,1018.1
"2009/12/01",1021.7,1024.2,1019.9
"2009/12/02",1023.6,1025.9,1021.1
"2009/12/03",1011.9,1021.2,1005.1
"2009/12/04",1015.2,1022.9,1005.3
"2009/12/05",1017.0,1022.8,1008.7
"2009/12/06",1009.1,1013.1,1007.1
"2009/12/07",1018.2,1023.3,1012.9
"2009/12/08",1024.9,1026.8,1023.1
"2009/12/09",1022.6,1024.9,1020.5
"2009/12/10",1024.5,1027.2,1021.1
"2009/12/11",1020.6,1026.6,1012.5
"2009/12/12",1011.4,1014.2,1008.6
"2009/12/13",1014.9,1017.1,1011.1
"2009/12/14",1016.1,1017.9,1013.7
"2009/12/15",1017.7,1020.6,1014.7
"2009/12/16",1013.5,1015.8,1011.2
"2009/12/17",1011.2,1014.1,1008.1
"2009/12/18",1007.5,1009.0,1004.6
"2009/12/19",1009.5,1011.3,1006.1
"2009/12/20",1008.2,1011.0,1006.0
"2009/12/21",1012.5,1019.4,1005.8
"2009/12/22",1019.8,1021.6,1017.9
"2009/12/23",1017.9,1020.4,1015.2
"2009/12/24",1017.9,1020.1,1015.0
"2009/12/25",1016.8,1018.4,1015.2
"2009/12/26",1011.5,1015.9,1008.1
"2009/12/27",1015.5,1017.8,1012.1
"2009/12/28",1008.4,1014.6,1002.3
"2009/12/29",1016.7,1020.1,1012.7
"2009/12/30",1010.6,1018.8,1000.4
"2009/12/31", 996.9,1000.6, 994.3
